Weather History for KANB - November, 2012

Change the Weather History Date:

Tuesday, November 6, 2012

  Actual Average Record
Temperature  
Mean Temperature 49 °F 57 °F  
Max Temperature 51 °F 69 °F 78 °F (1978)
Min Temperature 47 °F 45 °F 23 °F (1976)
Degree Days  
Heating Degree Days 16    
Month to date heating degree days 68  
Since 1 July heating degree days 221  
Moisture  
Dew Point 46 °F    
Average Humidity 85    
Maximum Humidity 93    
Minimum Humidity 77    
Precipitation  
Precipitation 0.08 in 0.13 in 1.34 in (1989)
Month to date precipitation 0.49 0.79  
Year to date precipitation 38.76 41.76  
Sea Level Pressure  
Sea Level Pressure 29.96 in    
Wind  
Wind Speed 3 mph (NNE)    
Max Wind Speed 13 mph    
Max Gust Speed 16 mph    
Visibility 6 miles    
Events Rain    
T = Trace of Precipitation, MM = Missing Value Source: NWS Daily Summary

Daily Weather History Graph

Daily Weather History Graph

Search for Another Location

Airport or City:

Trip Planner

Search our weather history database for the weather conditions in past years. The results will help you decide how hot, cold, wet, or windy it might be!

Date:

Astronomy

Nov. 06, 2012 Rise Set
Actual Time 6:07 AM CST 4:46 PM CST
Civil Twilight 5:41 AM CST 5:12 PM CST
Nautical Twilight 5:11 AM CST 5:42 PM CST
Astronomical Twilight 4:42 AM CST 6:11 PM CST
Moon 11:21 PM CST (11/6) 12:01 PM CST (11/6)
Length of Visible Light 11h 31m
Length of Day
10h 39m
Waning Gibbous, 53% of the Moon is Illuminated
Nov 6
Waning Gibbous
Nov 6
Last Quarter
Nov 13
New
Nov 20
First Quarter
Nov 28
Full

Hourly Weather History & Observations

Time (CST) Temp. Windchill Dew Point Humidity Pressure Visibility Wind Dir Wind Speed Gust Speed Precip Events Conditions
12:53 AM 48.0 °F - 46.0 °F 93% 29.94 in 5.0 mi NE 6.9 mph - 0.03 in Rain Light Rain
1:53 AM 48.0 °F - 46.0 °F 93% 29.93 in 4.0 mi Calm Calm - 0.04 in Rain Light Rain
1:58 AM 48.2 °F - 46.4 °F 93% 29.92 in 4.0 mi Calm Calm - 0.00 in Rain Light Rain
2:06 AM 48.2 °F - 46.4 °F 93% 29.92 in 5.0 mi SSE 3.5 mph - 0.00 in Rain Light Rain
2:37 AM 48.2 °F - 44.6 °F 87% 29.91 in 4.0 mi North 9.2 mph - 0.01 in Rain Light Rain
2:53 AM 46.9 °F - 45.0 °F 93% 29.92 in 4.0 mi North 6.9 mph - 0.01 in   Overcast
3:33 AM 46.4 °F 42.9 °F 44.6 °F 93% 29.93 in 3.0 mi North 6.9 mph - N/A   Overcast
3:53 AM 46.9 °F - 45.0 °F 93% 29.94 in 2.5 mi North 9.2 mph - 0.01 in   Overcast
4:09 AM 46.4 °F 42.4 °F 44.6 °F 93% 29.94 in 2.5 mi North 8.1 mph - N/A   Overcast
4:24 AM 46.4 °F 44.3 °F 44.6 °F 93% 29.93 in 4.0 mi NNE 4.6 mph - 0.00 in   Overcast
4:53 AM 46.9 °F - 45.0 °F 93% 29.94 in 7.0 mi North 6.9 mph - 0.00 in   Overcast
5:39 AM 46.4 °F 45.2 °F 44.6 °F 93% 29.93 in 8.0 mi Variable 3.5 mph - N/A   Overcast
6:09 AM 46.4 °F 43.5 °F 44.6 °F 93% 29.93 in 9.0 mi North 5.8 mph - N/A   Overcast
6:53 AM 46.9 °F - 44.1 °F 90% 29.96 in 7.0 mi NNE 5.8 mph - N/A   Overcast
7:05 AM 46.4 °F 43.5 °F 44.6 °F 93% 29.96 in 6.0 mi NNE 5.8 mph - N/A   Overcast
7:30 AM 48.2 °F - 44.6 °F 87% 29.96 in 7.0 mi North 5.8 mph - N/A   Overcast
7:53 AM 48.0 °F - 45.0 °F 89% 29.97 in 7.0 mi NNE 6.9 mph - N/A   Overcast
8:53 AM 48.9 °F - 45.0 °F 86% 29.99 in 6.0 mi North 5.8 mph - N/A   Overcast
9:53 AM 48.9 °F - 45.0 °F 86% 30.00 in 6.0 mi North 3.5 mph - N/A   Overcast
10:14 AM 50.0 °F - 46.4 °F 87% 29.99 in 6.0 mi Calm Calm - N/A   Overcast
10:53 AM 50.0 °F - 46.0 °F 86% 30.00 in 7.0 mi Calm Calm - N/A   Overcast
11:14 AM 50.0 °F - 46.4 °F 87% 29.98 in 6.0 mi Calm Calm - N/A   Overcast
11:26 AM 50.0 °F - 46.4 °F 87% 29.98 in 10.0 mi ENE 4.6 mph - N/A   Overcast
11:53 AM 50.0 °F - 45.0 °F 83% 29.98 in 10.0 mi Calm Calm - N/A   Overcast
12:53 PM 50.0 °F - 44.1 °F 80% 29.95 in 10.0 mi ENE 5.8 mph - N/A   Overcast
1:53 PM 51.1 °F - 44.1 °F 77% 29.98 in 10.0 mi North 3.5 mph - N/A   Overcast
2:53 PM 50.0 °F - 45.0 °F 83% 29.97 in 9.0 mi Calm Calm - N/A   Overcast
3:45 PM 48.2 °F - 46.4 °F 93% 29.96 in 6.0 mi East 4.6 mph - N/A   Overcast
3:53 PM 48.9 °F - 46.0 °F 90% 29.97 in 6.0 mi East 3.5 mph - N/A   Overcast
4:53 PM 48.9 °F - 46.0 °F 90% 29.97 in 5.0 mi Calm Calm - N/A   Overcast
5:53 PM 48.9 °F - 45.0 °F 86% 29.99 in 6.0 mi Calm Calm - N/A   Overcast
6:53 PM 48.9 °F - 45.0 °F 86% 30.00 in 6.0 mi Calm Calm - N/A   Overcast
7:53 PM 48.9 °F - 46.9 °F 93% 30.00 in 3.0 mi Calm Calm - N/A   Overcast
8:01 PM 48.2 °F - 46.4 °F 93% 29.99 in 3.0 mi Calm Calm - N/A   Overcast
8:53 PM 48.0 °F - 46.0 °F 93% 30.00 in 4.0 mi Calm Calm - N/A   Overcast
9:53 PM 48.0 °F - 46.9 °F 96% 30.00 in 3.0 mi Calm Calm - N/A   Overcast
10:19 PM 48.2 °F - 46.4 °F 93% 29.98 in 2.5 mi Calm Calm - N/A   Overcast
10:53 PM 48.0 °F - 46.9 °F 96% 29.99 in 2.5 mi Calm Calm - N/A   Overcast
11:18 PM 48.2 °F - 46.4 °F 93% 29.97 in 3.0 mi Calm Calm - N/A   Overcast
11:50 PM 46.4 °F 45.2 °F 46.4 °F 100% 29.97 in 3.0 mi SW 3.5 mph - N/A   Overcast
11:53 PM 46.9 °F - 46.0 °F 97% 29.98 in 3.0 mi SW 3.5 mph - N/A   Overcast